Location: Bonny Doon Airfield
(37.0704°N, 122.1252°W)
Time: 02:37:36
(UTC-07:00)

Envisat - Pass Details

Date: 07 October 2017
Orbit: 764 x 766 km, 98.2° (Epoch: 23 October)

Event Time Altitude Azimuth Distance (km) Brightness Sun altitude
Exits shadow 21:38:49 32° 301° (WNW) 1,298 4.6 -35.4°
Drops below altitude 10° 21:42:03 10° 331° (NNW) 2,307 6.0 -36.0°
Sets 21:44:31 0° 339° (NNW) 3,237 6.8 -36.5°
